Hourly Data Report for January 17, 2020

SATURNA ISLAND CS
BRITISH COLUMBIA
Current Station Operator: ECCC - MSC

48°47'02.067" N
123°02'41.082" W
24.40 m
1017101
71473
WEZ

Download Data

Hourly Data (January 2020)
Hourly Data Report for January 17, 2020
TIME
LST
Temp Definition
°C
Dew Point Definition
°C
Rel Hum Definition
%
Precip. Amount Definition
mm

Wind Dir Definition
10's deg

Wind Spd Definition
km/h
Visibility Definition
km
Stn Press Definition
kPa
Hmdx Definition


Wind Chill Definition


Weather Definition


00:00 2.1 -2.0 74 0.0 25 7   100.82     LegendNANA
01:00 2.5 -1.1 77 0.0 26 4   100.91     LegendNANA
02:00 2.2 -1.0 79 0.0 22 18   101.02     LegendNANA
03:00 2.0 -1.1 80 0.0 27 6   101.13     LegendNANA
04:00 1.8 -0.8 83 0.0 24 13   101.22     LegendNANA
05:00 1.2 -1.0 85 0.0 25 7   101.32     LegendNANA
06:00 1.4 -1.0 84 0.0 25 7   101.40     LegendNANA
07:00 2.1 -0.1 86 0.0 19 19   101.48     LegendNANA
08:00 2.7 0.4 84 0.0 19 22   101.58     LegendNANA
09:00 3.6 0.5 80 0.0 17 19   101.66     LegendNANA
10:00 4.4 -0.7 70 0.2 16 11   101.76     LegendNANA
11:00 3.6 0.8 82 0.0 11 20   101.85     LegendNANA
12:00 2.8 -0.2 80 0.0 10 21   101.85     LegendNANA
13:00 2.9 -0.1 80 0.0 9 23   101.85     LegendNANA
14:00 2.5 -0.7 79 0.0 8 22   101.85     LegendNANA
15:00 2.7 -0.8 78 0.0 8 23   101.86     LegendNANA
16:00 2.7 -0.6 79 0.0 8 24   101.85     LegendNANA
17:00 2.6 -0.6 79 0.0 9 29   101.84     LegendNANA
18:00 2.8 0.0 82 0.0 8 32   101.80     LegendNANA
19:00 3.2 0.1 80 0.0 9 30   101.78     LegendNANA
20:00 2.8 -0.3 80 0.0 7 34   101.69     LegendNANA
21:00 3.0 0.2 82 0.0 8 37   101.63     LegendNANA
22:00 2.8 -0.3 80 0.0 9 37   101.61     LegendNANA
23:00 3.4 0.3 80 0.0 8 40   101.50     LegendNANA

Notes on Data Quality.

Legend

  • E = Estimated
  • M = Missing
  • NA = Not Available*
  • [empty] = Indicates an unobserved value
Date modified: